sat.trackr.live / text

‹ back to catalog

STARLINK-6340

NORAD 57361 · 2023-099AK

PAYLOAD ACTIVE UNKNOWN

§ Identity

Operator
Country
US
Launch date
2023-07-16
Launch site
AFETR
Launch vehicle
Mass (kg)
RCS (m²)

Purposes: comms

External: N2YO · Heavens-Above · Gunter

§ Orbital elements

Epoch: 2026-09-20T22:07:55.996032Z

Period
94.27 min
Inclination
43.0031°
Eccentricity
0.0000633
Mean motion
15.27575173 rev/d
Perigee alt
482.6 km
Apogee alt
483.5 km
Semi-major
6,861.2 km
B*
5.6854e-7
RAAN
219.4455°
Arg perigee
284.5181°
Mean anomaly
75.5601°
Rev number
17,605

§ Raw data

STARLINK-63401 57361U 23099AK  26263.92217588 -.00000246  00000+0  56854-6 0  99922 57361  43.0031 219.4455 0000633 284.5181  75.5601 15.27575173176052

JSON: /api/v1/satellites/57361 · /tle

For live sub-satellite position, see the globe view (requires WebGL).

§ Visibility from observer

Set your observer location to see the next 7 days of passes ≥ 10°. The values pass through the URL so the page stays shareable.

No JS? Fill the form by hand. The geolocation button needs JavaScript.